Location: Fisheating Creek Campgrounds
(26.9333°N, 81.3167°W)
Time: 09:42:30
(UTC-04:00)

Cosmos 2221 Rocket - Visible Passes

Search period start: 27 May 2017 00:00
Search period end: 06 June 2017 00:00
Orbit: 622 x 647 km, 82.5° (Epoch: 26 May)

Date Brightness Start Highest point End Pass type
(mag) Time Alt. Az. Time Alt. Az. Time Alt. Az.
27 May 6.3 05:02:33 10° NNE 05:05:54 20° ENE 05:09:14 10° SE visible
28 May 4.7 05:23:52 10° N 05:28:14 46° E 05:32:33 10° SSE visible
29 May 3.6 05:45:56 10° N 05:50:27 71° W 05:54:55 10° S visible
30 May 6.5 04:31:38 10° NE 04:34:24 16° ENE 04:37:08 10° ESE visible
31 May 5.1 04:52:35 10° NNE 04:56:46 36° E 05:00:53 10° SSE visible
01 Jun 3.6 05:14:28 10° N 05:19:00 89° ENE 05:23:28 10° S visible
02 Jun 6.5 04:01:00 10° NE 04:02:52 12° ENE 04:04:43 10° E visible
02 Jun 4.2 05:36:58 10° NNW 05:41:07 37° W 05:45:14 10° SSW visible
03 Jun 5.5 04:21:22 10° NNE 04:25:16 28° E 04:29:07 10° SE visible
03 Jun 5.3 06:00:25 10° NW 06:03:07 16° W 06:05:49 10° SW visible
04 Jun 3.8 04:43:03 10° N 04:47:33 69° E 04:50:56 17° SSE visible
05 Jun 3.8 05:05:22 10° NNW 05:09:41 48° W 05:12:03 24° SSW visible
